User: anonymous   Login
Location: Newark
(51.0000°N, 11.4100°E)
Time: 06:11:08
(UTC+00:00)
Language:

SO-50 - Orbit

View from above orbital plane
View from above orbital plane
View from above satellite
View from above satellite

Ground track
Ground track

The orbit data is extracted from the following two-line orbital elements,

1 27607U 02058C   19347.79203877 -.00000033  00000-0  16149-4 0  9996
2 27607  64.5546 225.0714 0069813 221.3974 138.1827 14.75594877913314
Epoch (UTC): 13 December 2019 19:00:32
Eccentricity: 0.0069813
inclination: 64.5546°
perigee height: 594 km
apogee height: 692 km
right ascension of ascending node: 225.0714°
argument of perigee: 221.3974°
revolutions per day: 14.75594877
mean anomaly at epoch: 138.1827°
orbit number at epoch: 91331

The dashed part of the orbit path shows where the satellite is in the earth's shadow,  

DLR